Location: Mount Graham
(32.7016°N, 109.8912°W)
Time: 07:12:24
(UTC-07:00)

Cosmos 1340 - Visible Passes

Search period start: 27 May 2016 00:00
Search period end: 06 June 2016 00:00
Orbit: 508 x 513 km, 81.2° (Epoch: 26 May)

Date Brightness Start Highest point End Pass type
(mag) Time Alt. Az. Time Alt. Az. Time Alt. Az.
29 May 6.0 23:44:18 11° NNW 23:44:18 11° NNW 23:44:26 10° NNW visible
30 May 5.8 23:27:27 13° NNW 23:27:27 13° NNW 23:28:05 10° NNW visible
31 May 5.5 23:10:36 16° NNW 23:10:36 16° NNW 23:11:38 10° NNW visible
01 Jun 5.2 22:53:41 20° NNW 22:53:41 20° NNW 22:55:07 10° N visible
02 Jun 4.9 22:36:46 25° NNW 22:36:46 25° NNW 22:38:33 10° N visible
03 Jun 4.4 22:19:49 31° N 22:19:49 31° N 22:21:55 10° N visible
04 Jun 3.9 22:02:48 38° N 22:02:48 38° N 22:05:14 10° N visible
05 Jun 3.4 21:45:46 45° NNE 21:45:46 45° NNE 21:48:31 10° NNE visible
